datetime,flow
1931-10-01,19.0
1931-10-02,19.0
1931-10-03,19.0
1931-10-04,19.0
1931-10-05,19.0
1931-10-06,19.0
1931-10-07,19.0
1931-10-08,19.0
1931-10-09,19.0
1931-10-10,19.0
1931-10-11,19.0
1931-10-12,19.0
1931-10-13,19.0
1931-10-14,19.0
1931-10-15,19.0
1931-10-16,12.0
1931-10-17,12.0
1931-10-18,12.0
1931-10-19,12.0
1931-10-20,12.0
1931-10-21,10.0
1931-10-22,10.0
1931-10-23,10.0
1931-10-24,10.0
1931-10-25,10.0
1931-10-26,10.0
1931-10-27,8.0
1931-10-28,8.0
1931-10-29,8.0
1931-10-30,8.0
1931-10-31,8.0
1931-11-01,8.0
1931-11-02,8.0
1931-11-03,8.0
1931-11-04,8.0
1931-11-05,8.0
1931-11-06,8.0
1931-11-07,8.0
1931-11-08,8.0
1931-11-09,8.0
1931-11-10,8.0
1931-11-11,8.0
1931-11-12,7.0
1931-11-13,7.0
1931-11-14,7.0
1931-11-15,7.0
1931-11-16,7.0
1931-11-17,7.0
1931-11-18,7.0
1931-11-19,7.0
1931-11-20,7.0
1931-11-21,7.0
1931-11-22,7.0
1931-11-23,7.0
1931-11-24,7.0
1931-11-25,7.0
1931-11-26,7.0
1931-11-27,7.0
1931-11-28,7.0
1931-11-29,7.0
1931-11-30,7.0
1931-12-01,7.0
1931-12-02,7.0
1931-12-03,7.0
1931-12-04,7.0
1931-12-05,7.0
1931-12-06,7.0
1931-12-07,7.0
1931-12-08,7.0
1931-12-09,7.0
1931-12-10,7.0
1931-12-11,7.0
1931-12-12,7.0
1931-12-13,7.0
1931-12-14,7.0
1931-12-15,7.0
1931-12-16,7.0
1931-12-17,7.0
1931-12-18,7.0
1931-12-19,7.0
1931-12-20,7.0
1931-12-21,7.0
1931-12-22,7.0
1931-12-23,7.0
1931-12-24,7.0
1931-12-25,7.0
1931-12-26,7.0
1931-12-27,7.0
1931-12-28,7.0
1931-12-29,7.0
1931-12-30,7.0
1931-12-31,7.0
1932-01-01,7.0
1932-01-02,7.0
1932-01-03,7.0
1932-01-04,7.0
1932-01-05,7.0
1932-01-06,7.0
1932-01-07,7.0
1932-01-08,7.0
1932-01-09,7.0
1932-01-10,7.0
1932-01-11,7.0
1932-01-12,7.0
1932-01-13,7.0
1932-01-14,7.0
1932-01-15,8.0
1932-01-16,8.0
1932-01-17,8.0
1932-01-18,8.0
1932-01-19,8.0
1932-01-20,8.0
1932-01-21,8.0
1932-01-22,8.0
1932-01-23,8.0
1932-01-24,8.0
1932-01-25,8.0
1932-01-26,8.0
1932-01-27,8.0
1932-01-28,8.0
1932-01-29,8.0
1932-01-30,8.0
1932-01-31,8.0
1932-02-01,8.0
1932-02-02,8.0
1932-02-03,8.0
1932-02-04,8.0
1932-02-05,8.0
1932-02-06,8.0
1932-02-07,8.0
1932-02-08,8.0
1932-02-09,8.0
1932-02-10,8.0
1932-02-11,8.0
1932-02-12,8.0
1932-02-13,8.0
1932-02-14,8.0
1932-02-15,8.0
1932-02-16,8.0
1932-02-17,8.0
1932-02-18,8.0
1932-02-19,8.0
1932-02-20,8.0
1932-02-21,8.0
1932-02-22,9.0
1932-02-23,9.0
1932-02-24,10.0
1932-02-25,10.0
1932-02-26,9.0
1932-02-27,9.0
1932-02-28,8.0
1932-02-29,8.0
1932-03-01,8.0
1932-03-02,9.0
1932-03-03,10.0
1932-03-04,10.0
1932-03-05,10.0
1932-03-06,10.0
1932-03-07,10.0
1932-03-08,10.0
1932-03-09,10.0
1932-03-10,10.0
1932-03-11,10.0
1932-03-12,10.0
1932-03-13,10.0
1932-03-14,10.0
1932-03-15,11.0
1932-03-16,11.0
1932-03-17,11.0
1932-03-18,11.0
1932-03-19,11.0
1932-03-20,12.0
1932-03-21,12.0
1932-03-22,12.0
1932-03-23,12.0
1932-03-24,12.0
1932-03-25,12.0
1932-03-26,13.0
1932-03-27,13.0
1932-03-28,13.0
1932-03-29,14.0
1932-03-30,14.0
1932-03-31,15.0
1932-04-01,15.0
1932-04-02,15.0
1932-04-03,15.0
1932-04-04,15.0
1932-04-05,15.0
1932-04-06,15.0
1932-04-07,15.0
1932-04-08,15.0
1932-04-09,15.0
1932-04-10,15.0
1932-04-11,15.0
1932-04-12,15.0
1932-04-13,15.0
1932-04-14,16.0
1932-04-15,16.0
1932-04-16,16.0
1932-04-17,16.0
1932-04-18,16.0
1932-04-19,16.0
1932-04-20,16.0
1932-04-21,16.0
1932-04-22,16.0
1932-04-23,16.0
1932-04-24,16.0
1932-04-25,17.0
1932-04-26,17.0
1932-04-27,17.0
1932-04-28,18.0
1932-04-29,18.0
1932-04-30,19.0
1932-05-01,16.0
1932-05-02,16.0
1932-05-03,16.0
1932-05-04,16.0
1932-05-05,17.0
1932-05-06,17.0
1932-05-07,17.0
1932-05-08,17.0
1932-05-09,17.0
1932-05-10,17.0
1932-05-11,17.0
1932-05-12,17.0
1932-05-13,17.0
1932-05-14,17.0
1932-05-15,17.0
1932-05-16,17.0
1932-05-17,17.0
1932-05-18,18.0
1932-05-19,18.0
1932-05-20,18.0
1932-05-21,18.0
1932-05-22,18.0
1932-05-23,18.0
1932-05-24,18.0
1932-05-25,18.0
1932-05-26,18.0
1932-05-27,18.0
1932-05-28,19.0
1932-05-29,20.0
1932-05-30,19.0
1932-05-31,35.0
1932-06-01,52.0
1932-06-02,70.0
1932-06-03,72.0
1932-06-04,76.0
1932-06-05,89.0
1932-06-06,90.0
1932-06-07,100.0
1932-06-08,105.0
1932-06-09,102.0
1932-06-10,94.0
1932-06-11,79.0
1932-06-12,54.0
1932-06-13,39.0
1932-06-14,47.0
1932-06-15,72.0
1932-06-16,81.0
1932-06-17,63.0
1932-06-18,86.0
1932-06-19,86.0
1932-06-20,67.0
1932-06-21,63.0
1932-06-22,57.0
1932-06-23,48.0
1932-06-24,46.0
1932-06-25,44.0
1932-06-26,44.0
1932-06-27,44.0
1932-06-28,42.0
1932-06-29,30.0
1932-06-30,28.0
1932-07-01,24.0
1932-07-02,92.0
1932-07-03,152.0
1932-07-04,160.0
1932-07-05,178.0
1932-07-06,198.0
1932-07-07,202.0
1932-07-08,202.0
1932-07-09,229.0
1932-07-10,247.0
1932-07-11,247.0
1932-07-12,247.0
1932-07-13,113.0
1932-07-14,73.0
1932-07-15,73.0
1932-07-16,73.0
1932-07-17,73.0
1932-07-18,73.0
1932-07-19,73.0
1932-07-20,73.0
1932-07-21,73.0
1932-07-22,73.0
1932-07-23,73.0
1932-07-24,73.0
1932-07-25,73.0
1932-07-26,73.0
1932-07-27,73.0
1932-07-28,73.0
1932-07-29,73.0
1932-07-30,71.0
1932-07-31,71.0
1932-08-01,71.0
1932-08-02,71.0
1932-08-03,56.0
1932-08-04,42.0
1932-08-05,42.0
1932-08-06,42.0
1932-08-07,42.0
1932-08-08,42.0
1932-08-09,42.0
1932-08-10,62.0
1932-08-11,74.0
1932-08-12,75.0
1932-08-13,73.0
1932-08-14,71.0
1932-08-15,71.0
1932-08-16,70.0
1932-08-17,70.0
1932-08-18,70.0
1932-08-19,70.0
1932-08-20,68.0
1932-08-21,68.0
1932-08-22,68.0
1932-08-23,70.0
1932-08-24,71.0
1932-08-25,71.0
1932-08-26,71.0
1932-08-27,71.0
1932-08-28,71.0
1932-08-29,60.0
1932-08-30,19.0
1932-08-31,18.0
1932-09-01,18.0
1932-09-02,18.0
1932-09-03,18.0
1932-09-04,18.0
1932-09-05,18.0
1932-09-06,48.0
1932-09-07,65.0
1932-09-08,65.0
1932-09-09,132.0
1932-09-10,187.0
1932-09-11,185.0
1932-09-12,182.0
1932-09-13,183.0
1932-09-14,180.0
1932-09-15,187.0
1932-09-16,196.0
1932-09-17,187.0
1932-09-18,187.0
1932-09-19,185.0
1932-09-20,185.0
1932-09-21,187.0
1932-09-22,185.0
1932-09-23,183.0
1932-09-24,187.0
1932-09-25,191.0
1932-09-26,192.0
1932-09-27,189.0
1932-09-28,178.0
1932-09-29,143.0
1932-09-30,114.0
1932-10-01,114.0
1932-10-02,99.0
1932-10-03,79.0
1932-10-04,79.0
1932-10-05,79.0
1932-10-06,65.0
1932-10-07,54.0
1932-10-08,54.0
1932-10-09,54.0
1932-10-10,54.0
1932-10-11,54.0
1932-10-12,44.0
1932-10-13,29.0
1932-10-14,29.0
1932-10-15,29.0
1932-10-16,25.0
1932-10-17,18.0
1932-10-18,18.0
1932-10-19,18.0
1932-10-20,18.0
1932-10-21,18.0
1932-10-22,20.0
1932-10-23,21.0
1932-10-24,21.0
1932-10-25,21.0
1932-10-26,21.0
1932-10-27,22.0
1932-10-28,21.0
1932-10-29,21.0
1932-10-30,20.0
1932-10-31,20.0
1932-11-01,20.0
1932-11-02,19.0
1932-11-03,19.0
1932-11-04,19.0
1932-11-05,19.0
1932-11-06,19.0
1932-11-07,19.0
1932-11-08,19.0
1932-11-09,19.0
1932-11-10,19.0
1932-11-11,19.0
1932-11-12,19.0
1932-11-13,17.0
1932-11-14,17.0
1932-11-15,16.0
1932-11-16,16.0
1932-11-17,16.0
1932-11-18,16.0
1932-11-19,16.0
1932-11-20,14.0
1932-11-21,14.0
1932-11-22,14.0
1932-11-23,14.0
1932-11-24,14.0
1932-11-25,14.0
1932-11-26,14.0
1932-11-27,14.0
1932-11-28,14.0
1932-11-29,14.0
1932-11-30,14.0
1932-12-01,14.0
1932-12-02,14.0
1932-12-03,14.0
1932-12-04,14.0
1932-12-05,14.0
1932-12-06,14.0
1932-12-07,14.0
1932-12-08,14.0
1932-12-09,14.0
1932-12-10,14.0
1932-12-11,14.0
1932-12-12,14.0
1932-12-13,14.0
1932-12-14,14.0
1932-12-15,14.0
1932-12-16,14.0
1932-12-17,14.0
1932-12-18,14.0
1932-12-19,14.0
1932-12-20,14.0
1932-12-21,14.0
1932-12-22,14.0
1932-12-23,14.0
1932-12-24,14.0
1932-12-25,14.0
1932-12-26,14.0
1932-12-27,14.0
1932-12-28,14.0
1932-12-29,14.0
1932-12-30,14.0
1932-12-31,13.0
1933-01-01,12.0
1933-01-02,12.0
1933-01-03,12.0
1933-01-04,12.0
1933-01-05,12.0
1933-01-06,12.0
1933-01-07,12.0
1933-01-08,12.0
1933-01-09,12.0
1933-01-10,12.0
1933-01-11,12.0
1933-01-12,12.0
1933-01-13,12.0
1933-01-14,12.0
1933-01-15,12.0
1933-01-16,12.0
1933-01-17,12.0
1933-01-18,12.0
1933-01-19,12.0
1933-01-20,12.0
1933-01-21,12.0
1933-01-22,12.0
1933-01-23,12.0
1933-01-24,12.0
1933-01-25,12.0
1933-01-26,12.0
1933-01-27,12.0
1933-01-28,12.0
1933-01-29,12.0
1933-01-30,12.0
1933-01-31,12.0
1933-02-01,12.0
1933-02-02,12.0
1933-02-03,12.0
1933-02-04,12.0
1933-02-05,12.0
1933-02-06,12.0
1933-02-07,13.0
1933-02-08,13.0
1933-02-09,13.0
1933-02-10,13.0
1933-02-11,13.0
1933-02-12,13.0
1933-02-13,13.0
1933-02-14,13.0
1933-02-15,13.0
1933-02-16,13.0
1933-02-17,13.0
1933-02-18,13.0
1933-02-19,13.0
1933-02-20,13.0
1933-02-21,13.0
1933-02-22,13.0
1933-02-23,13.0
1933-02-24,13.0
1933-02-25,13.0
1933-02-26,13.0
1933-02-27,13.0
1933-02-28,13.0
1933-03-01,13.0
1933-03-02,14.0
1933-03-03,14.0
1933-03-04,14.0
1933-03-05,14.0
1933-03-06,14.0
1933-03-07,14.0
1933-03-08,14.0
1933-03-09,14.0
1933-03-10,14.0
1933-03-11,14.0
1933-03-12,14.0
1933-03-13,14.0
1933-03-14,14.0
1933-03-15,14.0
1933-03-16,14.0
1933-03-17,14.0
1933-03-18,14.0
1933-03-19,14.0
1933-03-20,14.0
1933-03-21,14.0
1933-03-22,14.0
1933-03-23,14.0
1933-03-24,14.0
1933-03-25,14.0
1933-03-26,14.0
1933-03-27,15.0
1933-03-28,15.0
1933-03-29,15.0
1933-03-30,15.0
1933-03-31,15.0
1933-04-01,15.0
1933-04-02,15.0
1933-04-03,15.0
1933-04-04,15.0
1933-04-05,15.0
1933-04-06,15.0
1933-04-07,16.0
1933-04-08,16.0
1933-04-09,16.0
1933-04-10,16.0
1933-04-11,16.0
1933-04-12,16.0
1933-04-13,16.0
1933-04-14,16.0
1933-04-15,16.0
1933-04-16,16.0
1933-04-17,17.0
1933-04-18,17.0
1933-04-19,17.0
1933-04-20,17.0
1933-04-21,17.0
1933-04-22,17.0
1933-04-23,17.0
1933-04-24,55.0
1933-04-25,96.0
1933-04-26,92.0
1933-04-27,92.0
1933-04-28,92.0
1933-04-29,92.0
1933-04-30,94.0
1933-05-01,84.0
1933-05-02,64.0
1933-05-03,76.0
1933-05-04,76.0
1933-05-05,76.0
1933-05-06,76.0
1933-05-07,72.0
1933-05-08,70.0
1933-05-09,78.0
1933-05-10,78.0
1933-05-11,78.0
1933-05-12,78.0
1933-05-13,78.0
1933-05-14,78.0
1933-05-15,67.0
1933-05-16,56.0
1933-05-17,54.0
1933-05-18,102.0
1933-05-19,127.0
1933-05-20,127.0
1933-05-21,127.0
1933-05-22,129.0
1933-05-23,148.0
1933-05-24,180.0
1933-05-25,192.0
1933-05-26,200.0
1933-05-27,172.0
1933-05-28,172.0
1933-05-29,170.0
1933-05-30,160.0
1933-05-31,156.0
1933-06-01,146.0
1933-06-02,127.0
1933-06-03,116.0
1933-06-04,122.0
1933-06-05,127.0
1933-06-06,71.0
1933-06-07,52.0
1933-06-08,54.0
1933-06-09,74.0
1933-06-10,102.0
1933-06-11,102.0
1933-06-12,89.0
1933-06-13,94.0
1933-06-14,120.0
1933-06-15,115.0
1933-06-16,92.0
1933-06-17,89.0
1933-06-18,76.0
1933-06-19,66.0
1933-06-20,64.0
1933-06-21,62.0
1933-06-22,60.0
1933-06-23,57.0
1933-06-24,50.0
1933-06-25,43.0
1933-06-26,43.0
1933-06-27,52.0
1933-06-28,118.0
1933-06-29,176.0
1933-06-30,174.0
1933-07-01,213.0
1933-07-02,250.0
1933-07-03,244.0
1933-07-04,242.0
1933-07-05,242.0
1933-07-06,242.0
1933-07-07,244.0
1933-07-08,244.0
1933-07-09,242.0
1933-07-10,242.0
1933-07-11,244.0
1933-07-12,244.0
1933-07-13,252.0
1933-07-14,250.0
1933-07-15,244.0
1933-07-16,242.0
1933-07-17,240.0
1933-07-18,238.0
1933-07-19,238.0
1933-07-20,242.0
1933-07-21,134.0
1933-07-22,71.0
1933-07-23,70.0
1933-07-24,71.0
1933-07-25,71.0
1933-07-26,70.0
1933-07-27,73.0
1933-07-28,74.0
1933-07-29,74.0
1933-07-30,74.0
1933-07-31,74.0
1933-08-01,74.0
1933-08-02,74.0
1933-08-03,74.0
1933-08-04,74.0
1933-08-05,74.0
1933-08-06,73.0
1933-08-07,73.0
1933-08-08,73.0
1933-08-09,76.0
1933-08-10,76.0
1933-08-11,74.0
1933-08-12,74.0
1933-08-13,74.0
1933-08-14,74.0
1933-08-15,74.0
1933-08-16,74.0
1933-08-17,74.0
1933-08-18,74.0
1933-08-19,74.0
1933-08-20,74.0
1933-08-21,74.0
1933-08-22,74.0
1933-08-23,74.0
1933-08-24,73.0
1933-08-25,73.0
1933-08-26,73.0
1933-08-27,73.0
1933-08-28,73.0
1933-08-29,73.0
1933-08-30,74.0
1933-08-31,76.0
1933-09-01,74.0
1933-09-02,73.0
1933-09-03,71.0
1933-09-04,71.0
1933-09-05,71.0
1933-09-06,127.0
1933-09-07,150.0
1933-09-08,152.0
1933-09-09,150.0
1933-09-10,148.0
1933-09-11,150.0
1933-09-12,150.0
1933-09-13,150.0
1933-09-14,148.0
1933-09-15,150.0
1933-09-16,146.0
1933-09-17,152.0
1933-09-18,150.0
1933-09-19,148.0
1933-09-20,129.0
1933-09-21,96.0
1933-09-22,94.0
1933-09-23,94.0
1933-09-24,90.0
1933-09-25,90.0
1933-09-26,120.0
1933-09-27,132.0
1933-09-28,130.0
1933-09-29,130.0
1933-09-30,138.0
1933-10-01,136.0
1933-10-02,134.0
1933-10-03,136.0
1933-10-04,129.0
1933-10-05,113.0
1933-10-06,111.0
1933-10-07,109.0
1933-10-08,109.0
1933-10-09,109.0
1933-10-10,109.0
1933-10-11,107.0
1933-10-12,107.0
1933-10-13,107.0
1933-10-14,109.0
1933-10-15,109.0
1933-10-16,109.0
1933-10-17,111.0
1933-10-18,109.0
1933-10-19,109.0
1933-10-20,109.0
1933-10-21,84.0
1933-10-22,63.0
1933-10-23,63.0
1933-10-24,62.0
1933-10-25,61.0
1933-10-26,60.0
1933-10-27,59.0
1933-10-28,58.0
1933-10-29,58.0
1933-10-30,58.0
1933-10-31,51.0
1933-11-01,35.0
1933-11-02,25.0
1933-11-03,19.0
1933-11-04,18.0
1933-11-05,18.0
1933-11-06,18.0
1933-11-07,18.0
1933-11-08,18.0
1933-11-09,17.0
1933-11-10,17.0
1933-11-11,17.0
1933-11-12,17.0
1933-11-13,17.0
1933-11-14,17.0
1933-11-15,17.0
1933-11-16,12.0
1933-11-17,9.0
1933-11-18,9.0
1933-11-19,9.0
1933-11-20,9.0
1933-11-21,9.0
1933-11-22,9.0
1933-11-23,9.0
1933-11-24,9.0
1933-11-25,9.0
1933-11-26,9.0
1933-11-27,9.0
1933-11-28,9.0
1933-11-29,9.0
1933-11-30,9.0
1933-12-01,9.0
1933-12-02,9.0
1933-12-03,9.0
1933-12-04,9.0
1933-12-05,9.0
1933-12-06,9.0
1933-12-07,9.0
1933-12-08,9.0
1933-12-09,9.0
1933-12-10,9.0
1933-12-11,9.0
1933-12-12,9.0
1933-12-13,9.0
1933-12-14,9.0
1933-12-15,9.0
1933-12-16,9.0
1933-12-17,13.0
1933-12-18,16.0
1933-12-19,16.0
1933-12-20,16.0
1933-12-21,16.0
1933-12-22,16.0
1933-12-23,16.0
1933-12-24,16.0
1933-12-25,16.0
1933-12-26,16.0
1933-12-27,16.0
1933-12-28,16.0
1933-12-29,16.0
1933-12-30,14.0
1933-12-31,11.0
1934-01-01,9.0
1934-01-02,9.0
1934-01-03,9.0
1934-01-04,9.0
1934-01-05,9.0
1934-01-06,9.0
1934-01-07,9.0
1934-01-08,9.0
1934-01-09,9.0
1934-01-10,9.0
1934-01-11,9.0
1934-01-12,9.0
1934-01-13,9.0
1934-01-14,9.0
1934-01-15,9.0
1934-01-16,9.0
1934-01-17,9.0
1934-01-18,9.0
1934-01-19,9.0
1934-01-20,9.0
1934-01-21,9.0
1934-01-22,9.0
1934-01-23,9.0
1934-01-24,9.0
1934-01-25,9.0
1934-01-26,9.0
1934-01-27,9.0
1934-01-28,9.0
1934-01-29,9.0
1934-01-30,9.0
1934-01-31,9.0
1934-02-01,9.0
1934-02-02,9.0
1934-02-03,9.0
1934-02-04,9.0
1934-02-05,9.0
1934-02-06,9.0
1934-02-07,9.0
1934-02-08,9.0
1934-02-09,9.0
1934-02-10,9.0
1934-02-11,9.0
1934-02-12,9.0
1934-02-13,9.0
1934-02-14,9.0
1934-02-15,9.0
1934-02-16,9.0
1934-02-17,9.0
1934-02-18,9.0
1934-02-19,9.0
1934-02-20,9.0
1934-02-21,9.0
1934-02-22,9.0
1934-02-23,9.0
1934-02-24,9.0
1934-02-25,9.0
1934-02-26,9.0
1934-02-27,9.0
1934-02-28,9.0
1934-03-01,9.0
1934-03-02,9.0
1934-03-03,9.0
1934-03-04,9.0
1934-03-05,9.0
1934-03-06,10.0
1934-03-07,10.0
1934-03-08,10.0
1934-03-09,10.0
1934-03-10,10.0
1934-03-11,10.0
1934-03-12,10.0
1934-03-13,10.0
1934-03-14,10.0
1934-03-15,10.0
1934-03-16,10.0
1934-03-17,10.0
1934-03-18,10.0
1934-03-19,11.0
1934-03-20,11.0
1934-03-21,11.0
1934-03-22,11.0
1934-03-23,11.0
1934-03-24,11.0
1934-03-25,11.0
1934-03-26,11.0
1934-03-27,11.0
1934-03-28,11.0
1934-03-29,11.0
1934-03-30,11.0
1934-03-31,11.0
1934-04-01,11.0
1934-04-02,11.0
1934-04-03,11.0
1934-04-04,11.0
1934-04-05,11.0
1934-04-06,11.0
1934-04-07,11.0
1934-04-08,11.0
1934-04-09,11.0
1934-04-10,11.0
1934-04-11,11.0
1934-04-12,11.0
1934-04-13,13.0
1934-04-14,24.0
1934-04-15,23.0
1934-04-16,24.0
1934-04-17,24.0
1934-04-18,24.0
1934-04-19,23.0
1934-04-20,24.0
1934-04-21,37.0
1934-04-22,47.0
1934-04-23,46.0
1934-04-24,46.0
1934-04-25,47.0
1934-04-26,47.0
1934-04-27,47.0
1934-04-28,46.0
1934-04-29,47.0
1934-04-30,48.0
1934-05-01,47.0
1934-05-02,48.0
1934-05-03,47.0
1934-05-04,47.0
1934-05-05,47.0
1934-05-06,47.0
1934-05-07,46.0
1934-05-08,46.0
1934-05-09,48.0
1934-05-10,37.0
1934-05-11,32.0
1934-05-12,33.0
1934-05-13,35.0
1934-05-14,35.0
1934-05-15,35.0
1934-05-16,35.0
1934-05-17,35.0
1934-05-18,35.0
1934-05-19,35.0
1934-05-20,35.0
1934-05-21,25.0
1934-05-22,61.0
1934-05-23,84.0
1934-05-24,84.0
1934-05-25,84.0
1934-05-26,82.0
1934-05-27,79.0
1934-05-28,79.0
1934-05-29,79.0
1934-05-30,81.0
1934-05-31,78.0
1934-06-01,78.0
1934-06-02,79.0
1934-06-03,79.0
1934-06-04,78.0
1934-06-05,79.0
1934-06-06,79.0
1934-06-07,79.0
1934-06-08,79.0
1934-06-09,78.0
1934-06-10,79.0
1934-06-11,78.0
1934-06-12,78.0
1934-06-13,78.0
1934-06-14,79.0
1934-06-15,79.0
1934-06-16,78.0
1934-06-17,78.0
1934-06-18,76.0
1934-06-19,76.0
1934-06-20,76.0
1934-06-21,76.0
1934-06-22,74.0
1934-06-23,78.0
1934-06-24,80.0
1934-06-25,79.0
1934-06-26,79.0
1934-06-27,79.0
1934-06-28,78.0
1934-06-29,78.0
1934-06-30,78.0
1934-07-01,78.0
1934-07-02,78.0
1934-07-03,74.0
1934-07-04,79.0
1934-07-05,80.0
1934-07-06,78.0
1934-07-07,76.0
1934-07-08,76.0
1934-07-09,74.0
1934-07-10,74.0
1934-07-11,76.0
1934-07-12,80.0
1934-07-13,79.0
1934-07-14,79.0
1934-07-15,78.0
1934-07-16,78.0
1934-07-17,73.0
1934-07-18,73.0
1934-07-19,80.0
1934-07-20,79.0
1934-07-21,79.0
1934-07-22,78.0
1934-07-23,76.0
1934-07-24,76.0
1934-07-25,76.0
1934-07-26,76.0
1934-07-27,76.0
1934-07-28,76.0
1934-07-29,74.0
1934-07-30,74.0
1934-07-31,74.0
1934-08-01,76.0
1934-08-02,78.0
1934-08-03,78.0
1934-08-04,76.0
1934-08-05,76.0
1934-08-06,74.0
1934-08-07,74.0
1934-08-08,74.0
1934-08-09,78.0
1934-08-10,76.0
1934-08-11,78.0
1934-08-12,78.0
1934-08-13,78.0
1934-08-14,80.0
1934-08-15,80.0
1934-08-16,79.0
1934-08-17,79.0
1934-08-18,76.0
1934-08-19,76.0
1934-08-20,70.0
1934-08-21,70.0
1934-08-22,70.0
1934-08-23,71.0
1934-08-24,70.0
1934-08-25,70.0
1934-08-26,71.0
1934-08-27,63.0
1934-08-28,55.0
1934-08-29,54.0
1934-08-30,58.0
1934-08-31,76.0
1934-09-01,70.0
1934-09-02,19.0
1934-09-03,13.0
1934-09-04,13.0
1934-09-05,13.0
1934-09-06,12.0
1934-09-07,12.0
1934-09-08,12.0
1934-09-09,12.0
1934-09-10,13.0
1934-09-11,13.0
1934-09-12,13.0
1934-09-13,13.0
1934-09-14,12.0
1934-09-15,13.0
1934-09-16,13.0
1934-09-17,13.0
1934-09-18,13.0
1934-09-19,13.0
1934-09-20,13.0
1934-09-21,13.0
1934-09-22,13.0
1934-09-23,13.0
1934-09-24,13.0
1934-09-25,14.0
1934-09-26,14.0
1934-09-27,14.0
1934-09-28,14.0
1934-09-29,14.0
1934-09-30,14.0
1934-10-01,15.0
1934-10-02,15.0
1934-10-03,15.0
1934-10-04,15.0
1934-10-05,15.0
1934-10-06,15.0
1934-10-07,15.0
1934-10-08,15.0
1934-10-09,16.0
1934-10-10,16.0
1934-10-11,16.0
1934-10-12,16.0
1934-10-13,16.0
1934-10-14,15.0
1934-10-15,14.0
1934-10-16,15.0
1934-10-17,14.0
1934-10-18,14.0
1934-10-19,14.0
1934-10-20,14.0
1934-10-21,14.0
1934-10-22,14.0
1934-10-23,14.0
1934-10-24,14.0
1934-10-25,14.0
1934-10-26,14.0
1934-10-27,14.0
1934-10-28,14.0
1934-10-29,14.0
1934-10-30,14.0
1934-10-31,14.0
1934-11-01,15.0
1934-11-02,15.0
1934-11-03,15.0
1934-11-04,15.0
1934-11-05,15.0
1934-11-06,15.0
1934-11-07,15.0
1934-11-08,15.0
1934-11-09,15.0
1934-11-10,15.0
1934-11-11,15.0
1934-11-12,15.0
1934-11-13,15.0
1934-11-14,15.0
1934-11-15,15.0
1934-11-16,15.0
1934-11-17,13.0
1934-11-18,12.0
1934-11-19,12.0
1934-11-20,12.0
1934-11-21,12.0
1934-11-22,12.0
1934-11-23,12.0
1934-11-24,11.0
1934-11-25,9.0
1934-11-26,9.0
1934-11-27,10.0
1934-11-28,10.0
1934-11-29,10.0
1934-11-30,10.0
1934-12-01,10.0
1934-12-02,10.0
1934-12-03,10.0
1934-12-04,10.0
1934-12-05,10.0
1934-12-06,10.0
1934-12-07,10.0
1934-12-08,10.0
1934-12-09,10.0
1934-12-10,10.0
1934-12-11,10.0
1934-12-12,10.0
1934-12-13,10.0
1934-12-14,10.0
1934-12-15,10.0
1934-12-16,10.0
1934-12-17,10.0
1934-12-18,10.0
1934-12-19,10.0
1934-12-20,10.0
1934-12-21,10.0
1934-12-22,10.0
1934-12-23,10.0
1934-12-24,10.0
1934-12-25,10.0
1934-12-26,10.0
1934-12-27,10.0
1934-12-28,10.0
1934-12-29,10.0
1934-12-30,10.0
1934-12-31,10.0
1935-01-01,10.0
1935-01-02,10.0
1935-01-03,10.0
1935-01-04,10.0
1935-01-05,10.0
1935-01-06,10.0
1935-01-07,10.0
1935-01-08,10.0
1935-01-09,10.0
1935-01-10,10.0
1935-01-11,10.0
1935-01-12,10.0
1935-01-13,10.0
1935-01-14,8.0
1935-01-15,7.0
1935-01-16,7.0
1935-01-17,7.0
1935-01-18,7.0
1935-01-19,6.0
1935-01-20,5.0
1935-01-21,5.0
1935-01-22,5.0
1935-01-23,5.0
1935-01-24,5.0
1935-01-25,5.0
1935-01-26,5.0
1935-01-27,5.0
1935-01-28,5.0
1935-01-29,5.0
1935-01-30,5.0
1935-01-31,5.0
1935-02-01,5.0
1935-02-02,5.0
1935-02-03,5.0
1935-02-04,5.0
1935-02-05,5.0
1935-02-06,5.0
1935-02-07,5.0
1935-02-08,5.0
1935-02-09,5.0
1935-02-10,5.0
1935-02-11,5.0
1935-02-12,5.0
1935-02-13,5.0
1935-02-14,5.0
1935-02-15,5.0
1935-02-16,5.0
1935-02-17,5.0
1935-02-18,5.0
1935-02-19,5.0
1935-02-20,5.0
1935-02-21,5.0
1935-02-22,5.0
1935-02-23,5.0
1935-02-24,5.0
1935-02-25,5.0
1935-02-26,5.0
1935-02-27,5.0
1935-02-28,5.0
1935-03-01,5.0
1935-03-02,5.0
1935-03-03,5.0
1935-03-04,5.0
1935-03-05,5.0
1935-03-06,5.0
1935-03-07,5.0
1935-03-08,5.0
1935-03-09,5.0
1935-03-10,5.0
1935-03-11,5.0
1935-03-12,5.0
1935-03-13,5.0
1935-03-14,5.0
1935-03-15,5.0
1935-03-16,5.0
1935-03-17,5.0
1935-03-18,5.0
1935-03-19,5.0
1935-03-20,5.0
1935-03-21,5.0
1935-03-22,5.0
1935-03-23,5.0
1935-03-24,5.0
1935-03-25,5.0
1935-03-26,5.0
1935-03-27,5.0
1935-03-28,5.0
1935-03-29,5.0
1935-03-30,5.0
1935-03-31,5.0
1935-04-01,5.0
1935-04-02,5.0
1935-04-03,5.0
1935-04-04,5.0
1935-04-05,5.0
1935-04-06,5.0
1935-04-07,5.0
1935-04-08,5.0
1935-04-09,5.0
1935-04-10,5.0
1935-04-11,6.0
1935-04-12,6.0
1935-04-13,6.0
1935-04-14,6.0
1935-04-15,6.0
1935-04-16,6.0
1935-04-17,6.0
1935-04-18,6.0
1935-04-19,6.0
1935-04-20,6.0
1935-04-21,6.0
1935-04-22,6.0
1935-04-23,6.0
1935-04-24,6.0
1935-04-25,6.0
1935-04-26,7.0
1935-04-27,7.0
1935-04-28,7.0
1935-04-29,7.0
1935-04-30,7.0
1935-05-01,7.0
1935-05-02,7.0
1935-05-03,7.0
1935-05-04,7.0
1935-05-05,7.0
1935-05-06,7.0
1935-05-07,7.0
1935-05-08,7.0
1935-05-09,7.0
1935-05-10,7.0
1935-05-11,7.0
1935-05-12,7.0
1935-05-13,7.0
1935-05-14,8.0
1935-05-15,8.0
1935-05-16,8.0
1935-05-17,8.0
1935-05-18,8.0
1935-05-19,8.0
1935-05-20,10.0
1935-05-21,10.0
1935-05-22,10.0
1935-05-23,10.0
1935-05-24,10.0
1935-05-25,10.0
1935-05-26,10.0
1935-05-27,10.0
1935-05-28,10.0
1935-05-29,10.0
1935-05-30,10.0
1935-05-31,10.0
1935-06-01,10.0
1935-06-02,10.0
1935-06-03,10.0
1935-06-04,10.0
1935-06-05,10.0
1935-06-06,10.0
1935-06-07,10.0
1935-06-08,10.0
1935-06-09,10.0
1935-06-10,10.0
1935-06-11,10.0
1935-06-12,10.0
1935-06-13,10.0
1935-06-14,14.0
1935-06-15,22.0
1935-06-16,25.0
1935-06-17,35.0
1935-06-18,33.0
1935-06-19,33.0
1935-06-20,33.0
1935-06-21,32.0
1935-06-22,31.0
1935-06-23,26.0
1935-06-24,28.0
1935-06-25,28.0
1935-06-26,27.0
1935-06-27,26.0
1935-06-28,26.0
1935-06-29,25.0
1935-06-30,22.0
1935-07-01,20.0
1935-07-02,40.0
1935-07-03,47.0
1935-07-04,46.0
1935-07-05,46.0
1935-07-06,44.0
1935-07-07,44.0
1935-07-08,43.0
1935-07-09,43.0
1935-07-10,40.0
1935-07-11,38.0
1935-07-12,38.0
1935-07-13,37.0
1935-07-14,37.0
1935-07-15,37.0
1935-07-16,37.0
1935-07-17,36.0
1935-07-18,36.0
1935-07-19,39.0
1935-07-20,39.0
1935-07-21,39.0
1935-07-22,39.0
1935-07-23,39.0
1935-07-24,39.0
1935-07-25,38.0
1935-07-26,38.0
1935-07-27,36.0
1935-07-28,33.0
1935-07-29,34.0
1935-07-30,32.0
1935-07-31,32.0
1935-08-01,32.0
1935-08-02,33.0
1935-08-03,32.0
1935-08-04,32.0
1935-08-05,32.0
1935-08-06,33.0
1935-08-07,34.0
1935-08-08,33.0
1935-08-09,33.0
1935-08-10,34.0
1935-08-11,33.0
1935-08-12,33.0
1935-08-13,34.0
1935-08-14,33.0
1935-08-15,32.0
1935-08-16,32.0
1935-08-17,36.0
1935-08-18,37.0
1935-08-19,37.0
1935-08-20,37.0
1935-08-21,36.0
1935-08-22,36.0
1935-08-23,36.0
1935-08-24,29.0
1935-08-25,24.0
1935-08-26,24.0
1935-08-27,23.0
1935-08-28,23.0
1935-08-29,23.0
1935-08-30,23.0
1935-08-31,26.0
1935-09-01,28.0
1935-09-02,28.0
1935-09-03,27.0
1935-09-04,27.0
1935-09-05,27.0
1935-09-06,27.0
1935-09-07,27.0
1935-09-08,27.0
1935-09-09,26.0
1935-09-10,26.0
1935-09-11,26.0
1935-09-12,26.0
1935-09-13,26.0
1935-09-14,26.0
1935-09-15,26.0
1935-09-16,26.0
1935-09-17,26.0
1935-09-18,26.0
1935-09-19,25.0
1935-09-20,25.0
1935-09-21,25.0
1935-09-22,25.0
1935-09-23,25.0
1935-09-24,25.0
1935-09-25,25.0
1935-09-26,25.0
1935-09-27,25.0
1935-09-28,19.0
1935-09-29,17.0
1935-09-30,17.0
1935-10-01,18.0
1935-10-02,16.0
1935-10-03,15.0
1935-10-04,15.0
1935-10-05,14.0
1935-10-06,14.0
1935-10-07,14.0
1935-10-08,13.0
1935-10-09,13.0
1935-10-10,13.0
1935-10-11,13.0
1935-10-12,12.0
1935-10-13,13.0
1935-10-14,12.0
1935-10-15,13.0
1935-10-16,12.0
1935-10-17,13.0
1935-10-18,12.0
1935-10-19,13.0
1935-10-20,12.0
1935-10-21,13.0
1935-10-22,12.0
1935-10-23,13.0
1935-10-24,12.0
1935-10-25,13.0
1935-10-26,12.0
1935-10-27,13.0
1935-10-28,12.0
1935-10-29,13.0
1935-10-30,12.0
1935-10-31,13.0
1935-11-01,12.0
1935-11-02,8.0
1935-11-03,6.0
1935-11-04,5.0
1935-11-05,5.0
1935-11-06,5.0
1935-11-07,5.0
1935-11-08,5.0
1935-11-09,5.0
1935-11-10,5.0
1935-11-11,5.0
1935-11-12,5.0
1935-11-13,5.0
1935-11-14,5.0
1935-11-15,5.0
1935-11-16,5.0
1935-11-17,5.0
1935-11-18,5.0
1935-11-19,5.0
1935-11-20,6.0
1935-11-21,6.0
1935-11-22,6.0